This demonstration page uses our WeatherBlox Daily Observations layout. Learn more.

Left ArrowRight Arrow

Hourly Observations for February 26, 2019

Temp ( °F °C ) Dew Point ( °F °C ) Humidity (%) Winds ( mph kmh ) Pressure ( in mb ) Visibility ( mi km ) Precip ( " mm )
12:52 am 00:52 Cloudy 5 -15 -2 -18.9 72 72 NNE 15 24 30.55 1035 10 16 0.00 0.00
1:52 am 01:52 Cloudy 5 -15 -3 -19.4 69 69 NNE 10 17 30.53 1034 10 16 0.00 0.00
2:52 am 02:52 Cloudy 5 -15 -3 -19.4 69 69 NNE 10 17 30.51 1033 10 16 0.00 0.00
3:52 am 03:52 Cloudy 5 -15 -3 -19.4 69 69 N 15 24 30.49 1033 10 16 0.00 0.00
4:52 am 04:52 Cloudy 5 -15 -3 -19.4 69 69 NNE 10 17 30.48 1032 10 16 0.00 0.00
5:45 am 05:45 Cloudy 5 -15 -3 -19.4 69 69 NNE 12 19 30.53 1034 10 16 0.00 0.00
5:52 am 05:52 Mostly Cloudy 5 -15 -3 -19.4 69 69 NNE 10 17 30.48 1032 10 16 0.00 0.00
6:38 am 06:38 Partly Cloudy 4 -15.6 -3 -19.4 73 73 NNE 12 19 30.53 1034 10 16 0.00 0.00
6:52 am 06:52 Partly Cloudy 4 -15.6 -3 -19.4 73 73 NNE 9 15 30.47 1032 10 16 0.00 0.00
7:52 am 07:52 Partly Cloudy 4 -15.6 -3 -19.4 73 73 N 8 13 30.47 1032 10 16 0.00 0.00
8:52 am 08:52 Partly Cloudy 6 -14.4 -2 -18.9 69 69 N 13 20 30.49 1032 10 16 0.00 0.00
9:52 am 09:52 Partly Cloudy 10 -12.2 0 -17.8 63 63 ENE 7 11 30.45 1031 10 16 0.00 0.00
10:52 am 10:52 Partly Cloudy 12 -11.1 2 -16.7 64 64 N 10 17 30.44 1031 10 16 0.00 0.00
11:52 am 11:52 Partly Cloudy 15 -9.4 3 -16.1 59 59 undefined N/A 30.41 1030 10 16 0.00 0.00
12:52 pm 12:52 Mostly Cloudy 17 -8.3 5 -15 59 59 NE 9 15 30.40 1029 10 16 0.00 0.00
1:01 pm 13:01 Mostly Cloudy 16 -8.9 5 -15 62 62 ENE 7 11 30.42 1030 10 16 0.00 0.00
1:52 pm 13:52 Cloudy 16 -8.9 5 -15 62 62 ESE 12 19 30.36 1028 10 16 0.00 0.00
2:52 pm 14:52 Cloudy 17 -8.3 7 -13.9 64 64 ENE 8 13 30.34 1028 10 16 0.00 0.00
3:52 pm 15:52 Cloudy 17 -8.3 7 -13.9 64 64 E 10 17 30.33 1027 10 16 0.00 0.00
4:52 pm 16:52 Cloudy with Light Snow 17 -8.3 8 -13.3 68 68 NE 6 9 30.33 1027 6 10 0.00 0.03
5:52 pm 17:52 Cloudy with Light Snow 16 -8.9 9 -12.8 74 74 N 10 17 30.33 1027 7 11 0.00 0.03
6:52 pm 18:52 Cloudy with Light Snow 16 -8.9 9 -12.8 74 74 NNE 6 9 30.32 1027 7 11 0.00 0.03
7:52 pm 19:52 Cloudy with Light Snow 16 -8.9 9 -12.8 74 74 NE 6 9 30.33 1027 9 14 0.00 0.03
8:45 pm 20:45 Cloudy with Light Snow 15 -9.4 9 -12.8 77 77 N 8 13 30.36 1028 9 14 0.00 0.03
8:52 pm 20:52 Cloudy with Light Snow 15 -9.4 9 -12.8 77 77 N 7 11 30.33 1027 7 11 0.00 0.03
9:52 pm 21:52 Cloudy with Light Snow 15 -9.4 9 -12.8 77 77 N 10 17 30.33 1027 7 11 0.00 0.03
10:52 pm 22:52 Cloudy with Light Snow 14 -10 8 -13.3 77 77 N 14 22 30.34 1027 6 10 0.00 0.03
11:52 pm 23:52 Cloudy with Light Snow 13 -10.6 8 -13.3 81 81 NNW 12 19 30.33 1027 5 8 0.00 0.03

Powered by AerisWeather